Location: Molveno
(46.1500°N, 10.9667°E)
Time: 16:48:01
(UTC+00:00)

Helios 1A - Pass Details

Date: 05 July 2020
Orbit: 587 x 600 km, 98.2° (Epoch: 07 August)

Event Time Altitude Azimuth Distance (km) Brightness Sun altitude
Exits shadow 23:24:57 60° 216° (SW) 676 2.9 -21.2°
Maximum altitude 23:25:27 67° 257° (WSW) 641 3.0 -21.2°
Drops below altitude 10° 23:29:36 10° 341° (NNW) 1,924 6.6 -21.2°
Sets 23:31:47 0° 344° (NNW) 2,830 7.7 -21.1°
